Tracking 17925 objects as of 24-January-2017
HD Live streaming from Space Station
objects crossing your sky now

VANGUARD R/B

Track VANGUARD R/B now!
10-day predictions


NORAD ID: 12
Int'l Code: 1959-001B
Perigee: 560.8 km
Apogee: 3,335.9 km
Inclination: 32.9 °
Period: 125.9 minutes
Semi major axis: 8319 km
RCS: 0.5381 m2 (medium)
Launch date: February 17, 1959
Source: United States (US)
Launch site: AIR FORCE EASTERN TEST RANGE (AFETR)

Note: This is a ROCKET BODY
Your satellite tracking list
Your tracking list is empty





NASA's NSSDC Master Catalog

Two Line Element Set (TLE):
1    12U 59001B   17022.95831936 +.00000334 +00000-0 +20123-3 0  9995
2    12 032.9016 014.0646 1667883 029.6864 338.8728 11.44108801137740
Source of the keplerian elements: AFSPC